Disclaimer

Please do not use the information listed here in-flight or in-navigation, as they are not provided to us by the airports but are provided by volunteers, so they might be outdated.

Search


Regions


Airport information page

No radio frequency information is available.

Airport informations:
Latitude: 24° 32' 38.53" N
Longitude: 118° 07' 39.86" E
Elevation: 59 feet - 18 meters
Operating hours: Remarks
Operating agency: Civil government, landing fees and diplomatic clearance may be required
Timezone: UTC+8
Fuel: Jet fuel avaiable but type is unknown.

100/130 MIL Spec, low lead, aviation gasoline (BLUE)

Runway information:
05/23 - 11155 x 148 feet< - >3400 x 45 meters

Recent METARs:
ZSAM 152100Z 07005MPS 9999 -RA BKN033 14/11 Q1021 NOSIG
ZSAM 152200Z 06007MPS 9999 -RA BKN033 13/11 Q1022 NOSIG
ZSAM 152200Z 06007MPS 9999 -RA BKN033 13/11 Q1022 NOSIG

Airport on the map: